SCP
0 0 0 0 0 0 0 0 0 0 0 0 0 0 0 0 0 0 0 0 0 0
0 0 0 0 0 0 0 0 0 0 0 0 0 0 0 0 0 0 0 0 0 0
0 0 0 0 0 0 0 0 0 0 0 0 0 0 0 0 0 0 0 0 0 0
0 0 0 0 0 0 0 0 0 0 0 0 0 0 0 0 0 0 0 0 0 0
0 0 0 0 0 0 0 0 0 0 0 0 0 0 0 0 0 0 0 0 0 0
0 0 0 0 0 0 0 0 0 0 0 0 0 0 0 0 0 0 0 0 0 0
0 0 0 0 0 0 0 0 0 0 0 0 0 0 0 0 0 0 0 0 0 0
0 0 0 0 0 0 0 0 0 0 0 0 0 0 0 0 0 0 0 0 0 0
0 0 0 0 0 0 0 0 0 0 0 0 0 0 0 0 0 0 0 0 0 -0
0 0 0 0 0 0 0 0 0 0 0 0 0 0 0 0 0 0 0 0 0 0
0 0 0 0 0 0 0 0 0 0 0 0 0 0 0 0 0 0 0 0 0 0
0 0 0 0 0 0 0 0 0 0 0 0 0 0 0 0 0 0 0 -0 0 0
0 0 0 0 0 0 0 0 0 0 0 0 0 0 0 0 0 0 0 -0 0 -0
0 0 0 0 0 0 0 0 0 0 0 0 0 0 0 0 0 0 0 0 -0 0
Wind_Speed_500mb
58 63 66 69 71 72 70 77 77 80 82 77 79 81 80 78 70 70 71 77 77 78
61 63 66 68 69 72 75 75 77 78 80 78 69 60 66 69 65 63 63 63 64 65
63 65 66 67 70 72 72 72 72 72 72 73 70 60 58 64 64 62 59 59 68 70
65 65 65 68 68 65 65 65 67 68 68 67 64 57 63 54 54 53 59 61 58 58
64 64 67 68 63 59 60 62 64 66 67 66 61 57 51 45 50 57 59 61 61 58
63 65 67 65 59 56 58 60 61 64 65 65 61 56 48 47 56 68 68 69 72 72
64 65 66 62 56 55 57 59 61 62 64 63 59 51 43 52 61 67 69 70 68 70
63 64 65 60 55 54 55 58 59 61 62 61 55 43 55 56 63 62 70 79 80 81
63 64 64 58 54 54 56 58 61 61 60 61 55 52 50 54 53 68 71 79 86 77
66 66 65 58 53 55 60 62 64 65 61 60 57 50 53 49 60 59 68 73 72 70
67 66 63 58 53 55 61 65 68 69 67 63 57 51 52 53 54 58 67 68 70 72
67 67 61 58 56 56 60 64 65 68 67 63 57 51 50 51 59 60 57 56 73 73
64 63 61 59 60 60 58 62 61 61 61 63 61 58 51 53 52 60 58 61 69 72
62 61 60 62 64 62 61 60 61 59 63 66 64 65 51 47 51 51 60 62 71 71
Wind_Direction_500mb
329 329 329 329 327 326 322 320 318 314 314 310 306 303 302 302 301 295 296 294 295 292
332 333 332 331 329 327 326 325 324 324 322 321 320 314 306 308 308 303 300 299 299 295
335 334 333 332 331 331 330 332 331 332 331 328 327 325 319 315 315 316 315 311 302 297
335 334 334 334 335 334 335 336 337 336 334 334 333 326 320 326 325 322 323 321 316 309
334 336 336 336 335 337 336 338 339 337 337 338 333 333 330 332 335 324 325 325 322 315
336 337 335 336 334 335 336 338 340 339 339 338 333 332 332 334 323 328 329 326 317 314
337 335 334 334 331 333 334 337 341 340 340 337 336 330 329 324 328 327 324 323 318 313
334 334 332 332 329 330 332 337 340 342 338 340 337 329 330 326 324 323 328 329 327 326
334 333 331 331 327 328 331 335 338 342 339 337 340 326 327 324 319 325 326 332 335 340
334 333 332 330 328 329 331 334 337 338 339 338 340 327 325 323 321 320 334 332 341 334
335 334 333 331 331 331 331 335 336 336 342 341 341 326 327 326 320 326 331 335 336 337
337 336 335 333 333 335 334 334 334 338 340 342 344 333 330 328 326 328 325 333 331 331
338 337 337 335 335 338 336 334 338 339 342 346 348 346 333 330 327 328 329 331 327 328
341 339 340 339 339 337 338 339 343 344 348 350 349 342 336 333 330 328 330 333 330 330
Wind_Speed_850mb
58 63 66 69 71 72 70 77 77 80 82 77 79 81 80 78 70 70 71 77 77 78
61 63 66 68 69 72 75 75 77 78 80 78 69 60 66 69 65 63 63 63 64 65
63 65 66 67 70 72 72 72 72 72 72 73 70 60 58 64 64 62 59 59 68 70
65 65 65 68 68 65 65 65 67 68 68 67 64 57 63 54 54 53 59 61 58 58
64 64 67 68 63 59 60 62 64 66 67 66 61 57 51 45 50 57 59 61 61 58
63 65 67 65 59 56 58 60 61 64 65 65 61 56 48 47 56 68 68 69 72 72
64 65 66 62 56 55 57 59 61 62 64 63 59 51 43 52 61 67 69 70 68 70
63 64 65 60 55 54 55 58 59 61 62 61 55 43 55 56 63 62 70 79 80 81
63 64 64 58 54 54 56 58 61 61 60 61 55 52 50 54 53 68 71 79 86 77
66 66 65 58 53 55 60 62 64 65 61 60 57 50 53 49 60 59 68 73 72 70
67 66 63 58 53 55 61 65 68 69 67 63 57 51 52 53 54 58 67 68 70 72
67 67 61 58 56 56 60 64 65 68 67 63 57 51 50 51 59 60 57 56 73 73
64 63 61 59 60 60 58 62 61 61 61 63 61 58 51 53 52 60 58 61 69 72
62 61 60 62 64 62 61 60 61 59 63 66 64 65 51 47 51 51 60 62 71 71
Wind_Direction_850mb
329 329 329 329 327 326 322 320 318 314 314 310 306 303 302 302 301 295 296 294 295 292
332 333 332 331 329 327 326 325 324 324 322 321 320 314 306 308 308 303 300 299 299 295
335 334 333 332 331 331 330 332 331 332 331 328 327 325 319 315 315 316 315 311 302 297
335 334 334 334 335 334 335 336 337 336 334 334 333 326 320 326 325 322 323 321 316 309
334 336 336 336 335 337 336 338 339 337 337 338 333 333 330 332 335 324 325 325 322 315
336 337 335 336 334 335 336 338 340 339 339 338 333 332 332 334 323 328 329 326 317 314
337 335 334 334 331 333 334 337 341 340 340 337 336 330 329 324 328 327 324 323 318 313
334 334 332 332 329 330 332 337 340 342 338 340 337 329 330 326 324 323 328 329 327 326
334 333 331 331 327 328 331 335 338 342 339 337 340 326 327 324 319 325 326 332 335 340
334 333 332 330 328 329 331 334 337 338 339 338 340 327 325 323 321 320 334 332 341 334
335 334 333 331 331 331 331 335 336 336 342 341 341 326 327 326 320 326 331 335 336 337
337 336 335 333 333 335 334 334 334 338 340 342 344 333 330 328 326 328 325 333 331 331
338 337 337 335 335 338 336 334 338 339 342 346 348 346 333 330 327 328 329 331 327 328
341 339 340 339 339 337 338 339 343 344 348 350 349 342 336 333 330 328 330 333 330 330